{"data":{"norad_id":67716,"intl_designator":"2026-025Z","name":"STARLINK-36715","alt_names":[],"object_type":"PAYLOAD","status":"ACTIVE","operator":null,"country":"US","launch_date":"2026-02-07","launch_site_code":"AFWTR","launch_vehicle":null,"mission":null,"orbit_class":"UNKNOWN","rcs_meters":null,"size_class":null,"mass_kg":null,"dimensions":null,"purposes":["comms"],"wikipedia_slug":null,"has_3d_model":false,"image_url":null,"decayed_at":null,"tle_current":{"epoch":"2026-05-24T19:35:15.826560Z","epoch_age_seconds":91040,"freshness":"FRESH","line1":"1 67716U 26025Z   26144.81615540  .00022940  00000+0  71061-3 0  9993","line2":"2 67716  97.2858 256.3541 0000209 158.5938 201.5313 15.33451221 17677","mean_motion":15.33451221,"eccentricity":2.09e-5,"inclination_deg":97.2858,"raan_deg":256.3541,"arg_perigee_deg":158.5938,"mean_anomaly_deg":201.5313,"bstar":0.00071061,"rev_number":1767,"period_min":93.905823692321,"perigee_km":465.38163269275,"apogee_km":465.66769775035,"semimajor_km":6843.6616652216,"source":"CELESTRAK","updated_at":"2026-05-25T13:38:21.684305Z"}}}